カタログに戻る

STARLINK-5322

運用中通信VLEO
NORAD 55303·PAYLOAD·🇺🇸 United States

打ち上げ Jan 19, 2023 から Vandenberg Space Force Base

Loading…

次のパス (今後24時間)

TLE

最新Source: CelesTrak SupGP

元期: Sep 14, 2026, 22:14 UTC

1 55303C 23010AL  26257.92687500  .00063242  00000+0  52999-2 0  2570
2 55303  69.9996 287.1224 0003396 267.8933 200.8774 14.98297833    14

AllMySatでSTARLINK-5322をリアルタイム追跡

Download on the App Store